Location: Noordwijk
(52.2400°N, 4.4500°E)
Time: 15:36:49
(UTC+00:00)

CAS-4A - Pass Details

Date: 13 December 2022
Orbit: 514 x 531 km, 43.0° (Epoch: 01 February)

Event Time Altitude Azimuth Distance (km) Brightness Sun altitude
Exits shadow 05:35:01 17° 218° (SW) 1,397 ? -18.3°
Maximum altitude 05:36:26 20° 191° (S) 1,267 ? -18.1°
Drops below altitude 10° 05:39:24 10° 144° (SE) 1,774 ? -17.6°
Sets 05:42:05 0° 127° (SE) 2,666 ? -17.2°
